193P/LINEAR-NEAT (2021)

Japanese version
Home page
Updated on December 1, 2021

---------------------------------------------------------------------

* Profile

* Pictures

* Orbital Elements

Epoch 2021 July 5.0 TT = JDT 2459400.5
T 2021 Aug. 25.32325 TT                                 Rudenko
q   2.1680207            (2000.0)            P               Q
n   0.14552002     Peri.    8.12117     +0.95677260     +0.28021881
a   3.5797626      Node   335.17467     -0.27617476     +0.79142872
e   0.3943675      Incl.   10.68840     -0.09117950     +0.54324764
P   6.77
From 401 observations 2001 Aug. 17-2021 June 27, mean residual 0".7.
     Nongravitational parameters A1 = +1.70, A2 = -0.1495.

* Finding Charts

* Magnitudes Graph

        m1 = 8.5 + 5 log d + 20.0 log r(t - 80)

---------------------------------------------------------------------

The orbital elements are published on M.P.E.C. 2021-N06.
The charts are made with StellaNavigator Ver.10 (AstroArts).
The magnitudes graphs are made with Comet for Windows.

---------------------------------------------------------------------

Copyright(C) Seiichi Yoshida (comet@aerith.net). All rights reserved.